Regional Weather Roundup
Issued by NWS

Home | Current Version | Previous Version | Text Only | Print | Product List | Glossary On
Versions: 1 2 3 4 5 6 7 8 9 10 11 12 13 14 15 16 17 18 19 20 21 22 23 24 25 26 27
000
ASUS42 KFFC 250603
RWRGA
WEATHER ROUNDUP FOR GEORGIA
NATIONAL WEATHER SERVICE PEACHTREE CITY GA
200 AM EDT MON JUL 25 2016

NOTE: "FAIR" INDICATES FEW OR NO CLOUDS BELOW 12,000 FEET WITH NO
SIGNIFICANT WEATHER AND/OR OBSTRUCTIONS TO VISIBILITY.

* = USE WITH CAUTION. THE STATIONS MARKED WITH AN ASTERISK MAY NOT
REPORT WEATHER SUCH AS PRECIPITATION, FOG, OR THUNDER AND ARE NOT
QUALITY CONTROLLED BY NWS.

THE REMARK "TC" DENOTES TEMPERATURE READING IN DEGREES CELSIUS.

GAZ001>058-250700-
NORTH GEORGIA

CITY           SKY/WX    TMP DP  RH WIND       PRES   REMARKS
ATLANTA        PTCLDY    80  71  74 CALM      30.04F
6HR MIN TEMP:  80; 6HR MAX TEMP:  88;

ATHENS         PTCLDY    79  72  79 VRB3      30.04F
6HR MIN TEMP:  77; 6HR MAX TEMP:  93;

CHAMBLEE       CLEAR     75  71  87 CALM      30.04F
6HR MIN TEMP:  75; 6HR MAX TEMP:  82;

PEACHTREE CITY CLEAR     73  70  90 CALM      30.05F
6HR MIN TEMP:  73; 6HR MAX TEMP:  92;

ROME           CLEAR     76  72  87 S3        30.02F
6HR MIN TEMP:  76; 6HR MAX TEMP:  91;

WEST ATLANTA   CLEAR     75  70  84 NW3       30.04F
6HR MIN TEMP:  74; 6HR MAX TEMP:  82; 6HR PCP: TRACE;

CARTERSVILLE   CLEAR     72  70  93 CALM      30.04F
6HR MIN TEMP:  71; 6HR MAX TEMP:  78; 6HR PCP: TRACE;



CITY           SKY/WX    TMP DP  RH WIND       PRES   REMARKS
DALTON*        CLEAR     73  73 100 CALM      30.02F
MARIETTA       CLEAR     74  72  93 CALM      30.05S
CANTON*        CLEAR     72  68  88 CALM      30.07F
BLAIRSVILLE*     N/A    N/A N/A N/A MISG      30.11F HAZE
$$

GAZ059>098-102>109-250700-
CENTRAL GEORGIA

CITY           SKY/WX    TMP DP  RH WIND       PRES   REMARKS
AUGUSTA-BUSH   MOCLDY    77  74  90 CALM      30.03F
6HR MIN TEMP:  76; 6HR MAX TEMP:  89;

AUGUSTA-DANIEL MOCLDY    83  70  64 S3        30.05F
6HR MIN TEMP:  83; 6HR MAX TEMP:  93;

COLUMBUS       CLEAR     82  70  66 CALM      30.02F
6HR MIN TEMP:  80; 6HR MAX TEMP:  92;

MACON          CLEAR     80  72  76 SE5       30.03F
6HR MIN TEMP:  79; 6HR MAX TEMP:  90;

ROBINS AFB     MOCLDY    78  73  83 S3        30.02F


CITY           SKY/WX    TMP DP  RH WIND       PRES   REMARKS
LAGRANGE*      CLEAR     74  74 100 CALM      30.03F
MILLEDGEVILLE* CLEAR     77  77 100 CALM      30.04S
$$

GAZ099>101-110>166-250700-
SOUTH GEORGIA

CITY           SKY/WX    TMP DP  RH WIND       PRES   REMARKS
SAVANNAH       PTCLDY    78  74  87 CALM      30.06F
6HR MIN TEMP:  78; 6HR MAX TEMP:  87;

VALDOSTA       CLEAR     74  72  93 CALM      30.04F
6HR MIN TEMP:  74; 6HR MAX TEMP:  88; 6HR PCP: TRACE;

ALMA           CLEAR     73  72  96 CALM      30.05F
6HR MIN TEMP:  73; 6HR MAX TEMP:  81;

ST SIMONS      CLEAR     83  72  69 S8        30.05F
6HR MIN TEMP:  83; 6HR MAX TEMP:  86;

FT STEWART     PTCLDY    74  73  94 CALM      30.04S
ALBANY         CLEAR     76  74  93 CALM      30.04F
HUNTER AFB     CLEAR     80  78  91 SW3       30.03F
MOODY AFB      CLEAR     74  72  94 CALM      30.04F
BRUNSWICK      CLEAR     81  75  83 SW3       30.06S


CITY           SKY/WX    TMP DP  RH WIND       PRES   REMARKS
BAINBRIDGE*    CLOUDY    79  73  83 CALM      30.03F
MOULTRIE*      CLEAR     75  72  88 CALM      30.06F
VIDALIA*       CLEAR     77  72  83 S3        30.06S
WAYCROSS*      CLEAR     77  75  95 CALM      30.05F
DOUGLAS*       CLEAR     75  72  88 CALM      30.06F
$$




USA.gov is the U.S. government's official web portal to all federal, state and local government web resources and services.